TimeEDT,TemperatureF,Dew PointF,Humidity,Sea Level PressureIn,VisibilityMPH,Wind Direction,Wind SpeedMPH,Gust SpeedMPH,PrecipitationIn,Events,Conditions,WindDirDegrees,DateUTC
12:58 AM,71.1,66.0,84,29.89,9.0,NW,8.1,-,N/A,,Mostly Cloudy,310,2013-10-20 04:58:00
1:58 AM,71.1,64.0,78,29.89,10.0,NW,9.2,-,N/A,,Overcast,310,2013-10-20 05:58:00
2:58 AM,69.1,63.0,81,29.88,10.0,NW,11.5,-,0.01,,Mostly Cloudy,320,2013-10-20 06:58:00
3:58 AM,68.0,63.0,84,29.89,9.0,NNW,11.5,-,N/A,,Overcast,340,2013-10-20 07:58:00
4:58 AM,66.9,60.1,79,29.90,10.0,North,10.4,-,N/A,,Overcast,350,2013-10-20 08:58:00
5:58 AM,66.0,59.0,78,29.92,10.0,North,12.7,-,N/A,,Overcast,360,2013-10-20 09:58:00
6:58 AM,64.0,54.0,70,29.94,10.0,North,15.0,-,N/A,,Overcast,10,2013-10-20 10:58:00
7:58 AM,63.0,54.0,72,29.98,10.0,North,9.2,-,N/A,,Overcast,350,2013-10-20 11:58:00
8:58 AM,63.0,55.9,78,30.01,10.0,North,10.4,-,0.00,,Overcast,10,2013-10-20 12:58:00
9:58 AM,63.0,57.0,81,30.04,9.0,North,9.2,-,0.00,Rain,Light Rain,10,2013-10-20 13:58:00
10:58 AM,66.0,55.9,70,30.04,10.0,North,13.8,-,0.00,,Scattered Clouds,10,2013-10-20 14:58:00
11:58 AM,66.9,57.0,70,30.04,10.0,NNE,12.7,20.7,N/A,,Partly Cloudy,20,2013-10-20 15:58:00
12:38 PM,66.2,57.2,73,30.04,10.0,NNE,12.7,-,N/A,,Mostly Cloudy,20,2013-10-20 16:38:00
12:45 PM,68.0,57.2,68,30.04,10.0,North,12.7,-,N/A,,Scattered Clouds,10,2013-10-20 16:45:00
12:58 PM,66.9,57.9,73,30.04,10.0,NNE,10.4,-,N/A,,Scattered Clouds,20,2013-10-20 16:58:00
1:21 PM,68.0,57.2,68,30.04,10.0,NNE,11.5,-,N/A,,Mostly Cloudy,30,2013-10-20 17:21:00
1:46 PM,69.8,57.2,64,30.03,10.0,NE,8.1,17.3,N/A,,Partly Cloudy,50,2013-10-20 17:46:00
1:58 PM,68.0,57.0,68,30.04,10.0,NE,9.2,-,N/A,,Mostly Cloudy,40,2013-10-20 17:58:00
2:58 PM,70.0,57.0,63,30.02,10.0,NNE,9.2,-,N/A,,Mostly Cloudy,20,2013-10-20 18:58:00
3:58 PM,70.0,55.0,59,30.02,10.0,North,8.1,-,N/A,,Partly Cloudy,10,2013-10-20 19:58:00
4:58 PM,66.9,54.0,63,30.03,10.0,NNE,8.1,-,N/A,,Clear,20,2013-10-20 20:58:00
5:58 PM,64.0,54.0,70,30.04,10.0,NE,3.5,-,N/A,,Clear,40,2013-10-20 21:58:00
6:58 PM,61.0,54.0,78,30.06,10.0,NE,4.6,-,N/A,,Clear,40,2013-10-20 22:58:00
7:58 PM,61.0,55.0,81,30.07,10.0,NE,3.5,-,N/A,,Clear,50,2013-10-20 23:58:00
8:58 PM,60.1,55.0,83,30.08,10.0,NE,4.6,-,N/A,,Clear,50,2013-10-21 00:58:00
9:58 PM,60.1,54.0,80,30.10,10.0,ENE,6.9,-,N/A,,Clear,60,2013-10-21 01:58:00
10:58 PM,60.1,54.0,80,30.10,10.0,NE,4.6,-,N/A,,Clear,50,2013-10-21 02:58:00
11:58 PM,59.0,53.1,81,30.10,10.0,NE,4.6,-,N/A,,Clear,50,2013-10-21 03:58:00